This demonstration page uses our WeatherBlox Daily Observations layout. Learn more.

Left ArrowRight Arrow

Hourly Observations for April 16, 2021

Temp ( °F °C ) Dew Point ( °F °C ) Humidity (%) Winds ( mph kmh ) Pressure ( in mb ) Visibility ( mi km ) Precip ( " mm )
12:59 am 00:59 Partly Cloudy 54 12.2 34 1.1 47 47 NNW 14 22 29.83 1010 10 16 0.00 0.00
1:59 am 01:59 Mostly Clear 53 11.7 33 0.6 47 47 NNW 15 24 29.83 1010 10 16 0.00 0.00
2:59 am 02:59 Clear 51 10.6 32 0 48 48 NNW 10 17 29.83 1010 10 16 0.00 0.00
3:59 am 03:59 Clear 50 10 32 0 50 50 NNW 12 19 29.83 1010 10 16 0.00 0.00
4:59 am 04:59 Clear 49 9.4 31 -0.6 50 50 NW 8 13 29.83 1010 10 16 0.00 0.00
5:59 am 05:59 Clear 47 8.3 32 0 56 56 NW 7 11 29.84 1011 10 16 0.00 0.00
6:59 am 06:59 Mostly Sunny 48 8.9 33 0.6 56 56 NW 6 9 29.85 1011 10 16 0.00 0.00
7:59 am 07:59 Mostly Sunny 52 11.1 35 1.7 53 53 WNW 8 13 29.87 1012 10 16 0.00 0.00
8:59 am 08:59 Sunny 53 11.7 36 2.2 52 52 W 10 17 29.87 1011 10 16 0.00 0.00
9:59 am 09:59 Sunny 55 12.8 33 0.6 44 44 W 10 17 29.87 1011 10 16 0.00 0.00
10:59 am 10:59 Mostly Sunny 57 13.9 33 0.6 41 41 WNW 13 20 29.86 1011 10 16 0.00 0.00
11:59 am 11:59 Mostly Sunny 60 15.6 33 0.6 36 36 WNW 15 24 29.84 1010 10 16 0.00 0.00
12:59 pm 12:59 Sunny 60 15.6 33 0.6 36 36 W 13 20 29.82 1010 10 16 0.00 0.00
1:59 pm 13:59 Partly Cloudy 62 16.7 34 1.1 35 35 W 13 20 29.80 1009 10 16 0.00 0.00
2:59 pm 14:59 Partly Cloudy 62 16.7 34 1.1 35 35 WNW 12 19 29.78 1009 10 16 0.00 0.00
3:59 pm 15:59 Partly Cloudy 62 16.7 35 1.7 37 37 WSW 12 19 29.76 1008 10 16 0.00 0.00
4:59 pm 16:59 Partly Cloudy 65 18.3 36 2.2 34 34 W 9 15 29.75 1007 10 16 0.00 0.00
5:59 pm 17:59 Partly Cloudy 63 17.2 34 1.1 34 34 W 12 19 29.75 1007 10 16 0.00 0.00
6:59 pm 18:59 Partly Cloudy 63 17.2 36 2.2 37 37 W 9 15 29.76 1008 10 16 0.00 0.00
7:59 pm 19:59 Partly Cloudy 62 16.7 37 2.8 40 40 W 7 11 29.78 1009 10 16 0.00 0.00
8:59 pm 20:59 Partly Cloudy 55 12.8 40 4.4 57 57 SW 5 7 29.80 1009 10 16 0.00 0.00
9:59 pm 21:59 Partly Cloudy 51 10.6 42 5.6 71 71 SSW 5 7 29.80 1009 10 16 0.00 0.00
10:59 pm 22:59 Partly Cloudy 57 13.9 40 4.4 53 53 N 15 24 29.83 1010 10 16 0.00 0.00
11:59 pm 23:59 Partly Cloudy 56 13.3 37 2.8 49 49 N 14 22 29.84 1011 10 16 0.00 0.00

Powered by AerisWeather